Regional Weather Roundup
Issued by NWS

Home | Current Version | Previous Version | Graphics & Text | Print | Product List | Glossary On
Versions: 1 2 3 4 5 6 7 8 9 10 11 12 13 14 15 16 17 18 19 20 21 22 23 24 25 26 27 28 29 30 31 32 33 34 35 36 37 38 39 40 41 42 43 44 45 46 47 48 49 50
476
ASUS45 KCYS 281910
RWRWY

WYOMING REGIONAL WEATHER ROUNDUP
NATIONAL WEATHER SERVICE CHEYENNE WY
100 PM MDT WED SEP 28 2016

NOTE:  "FAIR" INDICATES FEW OR NO CLOUDS BELOW 12,000 FEET
WITH NO SIGNIFICANT WEATHER AND/OR OBSTRUCTIONS TO VISIBILITY.

WYZ001-282000-
YELLOWSTONE NATIONAL PARK

CITY           SKY/WX    TMP DP  RH WIND       PRES   REMARKS
LK YELLOWSTONE   N/A     63  39  41 VRB3      30.41F
W YELLOWSTONE  NOT AVBL

$$
WYZ002>013-054>058-071-098>099-282000-
NORTHERN WYOMING

CITY           SKY/WX    TMP DP  RH WIND       PRES   REMARKS
JACKSON        SUNNY     64  37  36 S6        30.34F
CODY           FAIR      66  46  48 N3        30.30F
GREYBULL       FAIR      69  48  47 E5        30.25F
WORLAND        FAIR      69  51  52 N6        30.26F
SHERIDAN       FAIR      74  48  39 NW6       30.26F
BUFFALO        NOT AVBL
GILLETTE       FAIR      76  44  32 E12       30.30F
HULETT         FAIR      75  45  33 N8        30.31F
NEWCASTLE      FAIR      75  37  25 CALM      30.30S

$$
WYZ014>020-022>026-101>103-282000-
CENTRAL WYOMING

CITY           SKY/WX    TMP DP  RH WIND       PRES   REMARKS
BIG PINEY      FAIR      69  35  28 VRB3      30.39F
PINEDALE       FAIR      68  32  26 SW5       30.39F
DUBOIS         FAIR      64  32  29 E15G23    30.39F
LANDER         FAIR      71  39  31 CALM      30.32F
RIVERTON       FAIR      68  46  45 E7        30.33F
CASPER         FAIR      74  38  27 E10       30.33F
DOUGLAS        FAIR      75  38  26 E7        30.33F

$$
WYZ021-027>030-104>119-282000-
SOUTHERN WYOMING

CITY           SKY/WX    TMP DP  RH WIND       PRES   REMARKS
EVANSTON       FAIR      70  35  27 NE7       30.35F
FORT BRIDGER   FAIR      69  39  33 E9        30.39F
ROCK SPRINGS   FAIR      70  35  27 NE12      30.36F
DIXON          FAIR      74  34  23 W6        30.36F
RAWLINS        FAIR      73  30  20 VRB6      30.37F
SARATOGA       FAIR      72  32  23 N7        30.37F
LARAMIE        FAIR      71  30  21 SE15G22   30.40F
CHEYENNE       FAIR      73  35  25 CALM      30.38F
TORRINGTON     FAIR      78  36  21 VRB5      30.28F
PINE BLUFFS    FAIR      75  34  22 E3        30.34F

$$




USA.gov is the U.S. government's official web portal to all federal, state and local government web resources and services.